User: anonymous   Login
Location: Mascot Post Office (historical)
(40.2645°N, 99.5462°W)
Time: 08:56:35
(UTC+00:00)
Language:

Meteor 2-20 Rocket - Orbit

View from above orbital plane
View from above orbital plane
View from above satellite
View from above satellite

Ground track
Ground track

The orbit data is extracted from the following two-line orbital elements,

1 20827U 90086B   20265.90723599 +.00000015 +00000-0 +43843-6 0  9995
2 20827 082.5246 070.6670 0013421 150.5524 209.6394 13.83900608514345
Epoch (UTC): 21 September 2020 21:46:25
Eccentricity: 0.0013421
inclination: 82.5246°
perigee height: 940 km
apogee height: 960 km
right ascension of ascending node: 70.6670°
argument of perigee: 150.5524°
revolutions per day: 13.83900608
mean anomaly at epoch: 209.6394°
orbit number at epoch: 51434

The dashed part of the orbit path shows where the satellite is in the earth's shadow,  

DLR